Home   Weather   Ahmedabad   Past weeks

Flag for India Past Weather in Ahmedabad, Gujarat, India — Yesterday and Last 2 Weeks

Now
79 °F

Fog.


Feels Like: 83 °F
Forecast: 78 / 81 °F
Wind: 6 mph from West

Location: Ahmadabad Airport

Current Time: Jul 27, 2017 at 8:25:13 pm

Latest Report: Jul 27, 2017 at 8:00 pm


Visibility: 1 mi

Pressure: 29.59 "Hg

Humidity: 100%

Dew Point: 79 °F

Location of AhmedabadLocation

Past Weather in Ahmedabad — Graph

°F

Ahmedabad Temperature Yesterday

Maximum temperature yesterday: 81 °F (at 4:00 pm)
Minimum temperature yesterday: 77 °F (at 5:30 am)
Average temperature yesterday: 79 °F

High & Low Weather Summary for the Past Weeks

 TemperatureHumidityPressure
High93 °F (Jul 19, 2:30 pm)100% (Jul 15, 2:30 am)29.65 "Hg (Jul 15, 2:30 am)
Low75 °F (Jul 24, 2:30 pm)59% (Jul 19, 2:30 pm)29.36 "Hg (Jul 20, 5:00 pm)
Average82 °F89%29.52 "Hg
* Reported Jul 12 6:30 pm — Jul 27 7:00 pm, Ahmedabad. Weather by CustomWeather, © 2017

Note: Actual official high and low records may vary slightly from our data, if they occured in-between our weather recording intervals... More about our weather records

Advertising

Ahmedabad Weather History for the Previous 24 Hours

Scroll right to see more
 ConditionsComfort  
Time TempWeatherWind HumidityBarometerVisibility
7:00 pm
Thu, Jul 27
79 °FFog.7 mph100%29.59 "Hg2 mi
6:00 pm79 °FFog.8 mph100%29.59 "Hg2 mi
5:30 pm79 °FDrizzle. More clouds than sun.8 mph100%29.56 "Hg1 mi
5:00 pm79 °FRain. More clouds than sun.8 mph100%29.56 "Hg1 mi
4:30 pm79 °FDrizzle. More clouds than sun.6 mph94%29.56 "Hg2 mi
4:00 pm79 °FDrizzle. More clouds than sun.9 mph94%29.56 "Hg2 mi
3:30 pm79 °FDrizzle. More clouds than sun.14 mph100%29.56 "Hg2 mi
3:00 pm79 °FFog.9 mph100%29.56 "Hg2 mi
2:30 pm79 °FDrizzle. More clouds than sun.10 mph100%29.59 "Hg1 mi
2:00 pm79 °FLight rain. More clouds than sun.9 mph94%29.59 "Hg1 mi
1:30 pm79 °FLight rain. More clouds than sun.6 mph94%29.62 "Hg1 mi
1:00 pm79 °FLight rain. More clouds than sun.7 mph94%29.62 "Hg1 mi
12:30 pm79 °FLight rain. More clouds than sun.7 mph94%29.59 "Hg1 mi
12:00 pm77 °FRain. More clouds than sun.8 mph100%29.59 "Hg1 mi
11:30 am77 °FRain. More clouds than sun.8 mph100%29.62 "Hg1 mi
11:00 am77 °FDrizzle. More clouds than sun.5 mph100%29.62 "Hg2 mi
10:30 am77 °FLight rain. More clouds than sun.9 mph100%29.62 "Hg1 mi
10:00 am77 °FRain. Cloudy.8 mph100%29.62 "Hg1 mi
9:30 am77 °FThunderstorms. Broken clouds.8 mph100%29.62 "Hg1 mi
9:00 am77 °FThunderstorms. Broken clouds.12 mph100%29.59 "Hg1 mi
8:30 am77 °FThunderstorms. Broken clouds.5 mph100%29.59 "Hg1 mi
8:00 am77 °FThunderstorms. Broken clouds.8 mph100%29.59 "Hg1 mi
7:00 am77 °FThunderstorms. Broken clouds.12 mph100%29.56 "Hg1 mi
6:30 am77 °FRain. Overcast.12 mph100%29.56 "Hg1 mi
6:00 am77 °FThunderstorms. Partly cloudy.14 mph100%29.56 "Hg1 mi
5:30 am79 °FThunderstorms. Passing clouds.12 mph94%29.53 "Hg1 mi
5:00 am79 °FThunderstorms. Passing clouds.12 mph94%29.53 "Hg1 mi
4:30 am79 °FRain. Passing clouds.7 mph94%29.53 "Hg1 mi
4:00 am79 °FRain. Passing clouds.8 mph94%29.53 "Hg1 mi
3:30 am79 °FRain. Mostly cloudy.5 mph94%29.56 "Hg1 mi
3:00 am79 °FLight rain. Mostly cloudy.8 mph94%29.53 "Hg1 mi
2:30 am79 °FLight rain. Mostly cloudy.8 mph94%29.56 "Hg1 mi
2:00 am79 °FLight rain. Mostly cloudy.7 mph94%29.56 "Hg1 mi
1:30 am79 °FLight rain. Mostly cloudy.7 mph94%29.56 "Hg1 mi
1:00 am79 °FDrizzle. Mostly cloudy.5 mph94%29.59 "Hg1 mi
12:30 am79 °FDrizzle. Mostly cloudy.8 mph94%29.59 "Hg1 mi
12:00 am79 °FDrizzle. Mostly cloudy.8 mph94%29.59 "Hg1 mi
11:30 pm
Wed, Jul 26
79 °FLight rain. Mostly cloudy.8 mph94%29.59 "Hg1 mi
11:00 pm79 °FLight rain. Mostly cloudy.8 mph94%29.59 "Hg1 mi
10:30 pm79 °FRain. Mostly cloudy.9 mph94%29.59 "Hg1 mi
10:00 pm79 °FHeavy rain. Mostly cloudy.12 mph94%29.59 "Hg1 mi
9:30 pm79 °FRain. Mostly cloudy.5 mph94%29.59 "Hg1 mi
9:00 pm79 °FRain. Mostly cloudy.5 mph94%29.56 "Hg1 mi
8:30 pm79 °FRain. Mostly cloudy.7 mph100%29.56 "Hg1 mi
8:00 pm79 °FRain. Overcast.No wind100%29.56 "Hg1 mi
Weather by CustomWeather, © 2017

See weather overviewHow to use our weather pages